Weather History for Auburn, IN

Change the Weather History Date:

Friday, May 3, 2013

  Actual Average (KFWA) Record (KFWA)
Temperature  
Mean Temperature 68 °F 56 °F  
Max Temperature 77 °F 68 °F 87 °F (1955)
Min Temperature 59 °F 45 °F 30 °F (1967)
Degree Days  
Heating Degree Days 0 9  
Month to date heating degree days 29  
Since 1 July heating degree days 5911  
Cooling Degree Days 3 0  
Month to date cooling degree days 0  
Year to date cooling degree days 8  
Growing Degree Days 18 (Base 50)    
Moisture  
Dew Point 49 °F    
Average Humidity 52    
Maximum Humidity 77    
Minimum Humidity 28    
Precipitation  
Precipitation 0.00 in 0.11 in 0.77 in (1997)
Month to date precipitation 0.33  
Year to date precipitation 10.86  
Snow  
Snow 0.00 in 0.00 in T in (1954)
Month to date snowfall 0.0  
Since 1 July snowfall 33.5  
Snow Depth -    
Sea Level Pressure  
Sea Level Pressure 30.05 in    
Wind  
Wind Speed 5 mph (ESE)    
Max Wind Speed 12 mph    
Max Gust Speed 18 mph    
Visibility 10 miles    
Events      
T = Trace of Precipitation, MM = Missing Value Source: NWS Daily Summary

Daily Weather History Graph

Daily Weather History Graph

Search for Another Location

Airport:

Trip Planner

Search our weather history database for the weather conditions in past years. The results will help you decide how hot, cold, wet, or windy it might be!

Date:

Astronomy

May. 03, 2013 Rise Set
Actual Time 6:34 AM EDT 8:40 PM EDT
Civil Twilight 6:04 AM EDT 9:10 PM EDT
Nautical Twilight 5:27 AM EDT 9:47 PM EDT
Astronomical Twilight 4:47 AM EDT 10:28 PM EDT
Moon 3:02 AM EDT (5/3) 2:30 PM EDT (5/3)
Length of Visible Light 15h 05m
Length of Day
14h 05m
Last Quarter, 37% of the Moon is Illuminated
May 3
Last Quarter
May 9
New
May 18
First Quarter
May 25
Full
May 31
Last Quarter

Hourly Weather History & Observations

Time (EDT) Temp. Dew Point Humidity Pressure Visibility Wind Dir Wind Speed Gust Speed Precip Events Conditions
12:15 AM 62.6 °F 51.8 °F 68% 30.11 in 10.0 mi East 4.6 mph - N/A   Overcast
12:35 AM 62.6 °F 51.8 °F 68% 30.11 in 10.0 mi East 3.5 mph - N/A   Overcast
12:55 AM 62.6 °F 51.8 °F 68% 30.10 in 10.0 mi East 4.6 mph - N/A   Overcast
1:15 AM 62.6 °F 51.8 °F 68% 30.10 in 10.0 mi East 3.5 mph - N/A   Mostly Cloudy
1:35 AM 62.6 °F 51.8 °F 68% 30.10 in 10.0 mi Calm Calm - N/A   Overcast
1:55 AM 62.6 °F 51.8 °F 68% 30.09 in 10.0 mi ESE 3.5 mph - N/A   Mostly Cloudy
2:15 AM 62.6 °F 51.8 °F 68% 30.08 in 10.0 mi Calm Calm - N/A   Mostly Cloudy
2:35 AM 62.6 °F 51.8 °F 68% 30.08 in 10.0 mi Calm Calm - N/A   Overcast
2:55 AM 62.6 °F 51.8 °F 68% 30.08 in 10.0 mi East 3.5 mph - N/A   Mostly Cloudy
3:15 AM 60.8 °F 51.8 °F 72% 30.08 in 10.0 mi East 3.5 mph - N/A   Mostly Cloudy
3:35 AM 60.8 °F 51.8 °F 72% 30.07 in 10.0 mi East 4.6 mph - N/A   Scattered Clouds
3:55 AM 60.8 °F 51.8 °F 72% 30.07 in 10.0 mi ESE 3.5 mph - N/A   Scattered Clouds
4:15 AM 60.8 °F 51.8 °F 72% 30.07 in 10.0 mi ESE 4.6 mph - N/A   Scattered Clouds
4:35 AM 60.8 °F 51.8 °F 72% 30.07 in 10.0 mi East 4.6 mph - N/A   Scattered Clouds
4:55 AM 60.8 °F 51.8 °F 72% 30.07 in 10.0 mi ESE 3.5 mph - N/A   Mostly Cloudy
5:15 AM 60.8 °F 51.8 °F 72% 30.07 in 10.0 mi East 3.5 mph - N/A   Scattered Clouds
5:35 AM 59.0 °F 51.8 °F 77% 30.07 in 10.0 mi East 3.5 mph - N/A   Scattered Clouds
5:55 AM 59.0 °F 51.8 °F 77% 30.07 in 10.0 mi East 3.5 mph - N/A   Clear
6:35 AM 59.0 °F 51.8 °F 77% 30.07 in 10.0 mi ESE 3.5 mph - N/A   Scattered Clouds
6:55 AM 60.8 °F 53.6 °F 77% 30.08 in 10.0 mi East 3.5 mph - N/A   Mostly Cloudy
7:15 AM 60.8 °F 53.6 °F 77% 30.08 in 10.0 mi ESE 3.5 mph - N/A   Overcast
7:35 AM 62.6 °F 53.6 °F 72% 30.08 in 10.0 mi ESE 4.6 mph - N/A   Mostly Cloudy
7:55 AM 62.6 °F 53.6 °F 72% 30.08 in 10.0 mi ESE 3.5 mph - N/A   Scattered Clouds
8:15 AM 64.4 °F 53.6 °F 68% 30.08 in 10.0 mi ESE 3.5 mph - N/A   Clear
8:35 AM 64.4 °F 53.6 °F 68% 30.08 in 10.0 mi ESE 5.8 mph - N/A   Clear
8:55 AM 64.4 °F 53.6 °F 68% 30.08 in 10.0 mi SE 5.8 mph - N/A   Clear
9:15 AM 66.2 °F 53.6 °F 64% 30.08 in 10.0 mi SE 4.6 mph - N/A   Clear
9:35 AM 68.0 °F 53.6 °F 60% 30.08 in 10.0 mi SSE 6.9 mph - N/A   Clear
9:55 AM 69.8 °F 53.6 °F 56% 30.07 in 10.0 mi SE 6.9 mph - N/A   Clear
10:15 AM 69.8 °F 53.6 °F 56% 30.07 in 10.0 mi SE 6.9 mph - N/A   Clear
10:35 AM 69.8 °F 53.6 °F 56% 30.07 in 10.0 mi SE 8.1 mph - N/A   Clear
10:55 AM 69.8 °F 53.6 °F 56% 30.07 in 10.0 mi South 4.6 mph - N/A   Clear
11:15 AM 71.6 °F 53.6 °F 53% 30.07 in 10.0 mi SSE 5.8 mph - N/A   Clear
11:35 AM 71.6 °F 55.4 °F 57% 30.06 in 10.0 mi East 8.1 mph - N/A   Clear
11:55 AM 73.4 °F 53.6 °F 50% 30.06 in 10.0 mi SSE 5.8 mph - N/A   Clear
12:15 PM 73.4 °F 53.6 °F 50% 30.06 in 10.0 mi SSE 6.9 mph - N/A   Clear
12:35 PM 73.4 °F 53.6 °F 50% 30.05 in 10.0 mi ESE 9.2 mph 18.4 mph N/A   Clear
12:55 PM 73.4 °F 53.6 °F 50% 30.05 in 10.0 mi SE 5.8 mph - N/A   Clear
1:15 PM 75.2 °F 51.8 °F 44% 30.04 in 10.0 mi SE 10.4 mph 16.1 mph N/A   Clear
1:35 PM 75.2 °F 51.8 °F 44% 30.04 in 10.0 mi SE 6.9 mph - N/A   Clear
1:55 PM 77.0 °F 51.8 °F 41% 30.04 in 10.0 mi SE 9.2 mph 18.4 mph N/A   Clear
2:15 PM 77.0 °F 51.8 °F 41% 30.04 in 10.0 mi ESE 10.4 mph 16.1 mph N/A   Clear
2:35 PM 75.2 °F 50.0 °F 41% 30.03 in 10.0 mi SE 9.2 mph 18.4 mph N/A   Clear
2:55 PM 75.2 °F 48.2 °F 38% 30.03 in 10.0 mi ESE 9.2 mph 17.3 mph N/A   Clear
3:15 PM 77.0 °F 48.2 °F 36% 30.02 in 10.0 mi ESE 10.4 mph 16.1 mph N/A   Clear
3:35 PM 77.0 °F 46.4 °F 34% 30.02 in 10.0 mi SE 8.1 mph - N/A   Clear
3:55 PM 77.0 °F 46.4 °F 34% 30.01 in 10.0 mi SE 11.5 mph 18.4 mph N/A   Clear
4:15 PM 77.0 °F 46.4 °F 34% 30.01 in 10.0 mi ESE 8.1 mph - N/A   Clear
4:35 PM 77.0 °F 44.6 °F 32% 30.00 in 10.0 mi ESE 9.2 mph - N/A   Clear
4:55 PM 77.0 °F 44.6 °F 32% 30.00 in 10.0 mi ESE 5.8 mph 17.3 mph N/A   Clear
5:15 PM 77.0 °F 44.6 °F 32% 30.00 in 10.0 mi SE 9.2 mph 18.4 mph N/A   Clear
5:35 PM 77.0 °F 42.8 °F 29% 29.99 in 10.0 mi SE 8.1 mph - N/A   Clear
5:55 PM 77.0 °F 42.8 °F 29% 29.99 in 10.0 mi ESE 9.2 mph 17.3 mph N/A   Clear
6:15 PM 75.2 °F 42.8 °F 31% 29.99 in 10.0 mi ESE 8.1 mph - N/A   Clear
6:35 PM 77.0 °F 41.0 °F 28% 29.99 in 10.0 mi ESE 9.2 mph 18.4 mph N/A   Clear
6:55 PM 77.0 °F 41.0 °F 28% 29.99 in 10.0 mi ESE 8.1 mph - N/A   Clear
7:15 PM 75.2 °F 41.0 °F 29% 29.99 in 10.0 mi ESE 6.9 mph - N/A   Clear
7:35 PM 73.4 °F 41.0 °F 31% 29.99 in 10.0 mi ESE 6.9 mph - N/A   Clear
7:55 PM 71.6 °F 39.2 °F 31% 30.00 in 10.0 mi ESE 5.8 mph - N/A   Clear
8:15 PM 71.6 °F 41.0 °F 33% 30.00 in 10.0 mi ESE 4.6 mph - N/A   Clear
8:35 PM 69.8 °F 41.0 °F 35% 30.00 in 10.0 mi East 5.8 mph - N/A   Clear
8:55 PM 69.8 °F 42.8 °F 38% 30.00 in 10.0 mi East 4.6 mph - N/A   Clear
9:15 PM 68.0 °F 42.8 °F 40% 30.01 in 10.0 mi East 5.8 mph - N/A   Clear
9:35 PM 68.0 °F 42.8 °F 40% 30.01 in 10.0 mi East 5.8 mph - N/A   Clear
9:55 PM 68.0 °F 42.8 °F 40% 30.02 in 10.0 mi East 5.8 mph - N/A   Clear
10:15 PM 66.2 °F 42.8 °F 43% 30.02 in 10.0 mi ESE 4.6 mph - N/A   Clear
10:35 PM 66.2 °F 42.8 °F 43% 30.02 in 10.0 mi ESE 4.6 mph - N/A   Clear
10:55 PM 64.4 °F 42.8 °F 45% 30.02 in 10.0 mi East 4.6 mph - N/A   Clear
11:15 PM 64.4 °F 42.8 °F 45% 30.02 in 10.0 mi East 5.8 mph - N/A   Clear
11:35 PM 64.4 °F 41.0 °F 42% 30.02 in 10.0 mi East 5.8 mph - N/A   Clear
11:55 PM 64.4 °F 41.0 °F 42% 30.02 in 10.0 mi East 4.6 mph - N/A   Clear